Weather History for Marianna, FL

Change the Weather History Date:

Saturday, February 9, 2013

  Actual Average Record
Temperature  
Mean Temperature 54 °F 53 °F  
Max Temperature 66 °F 65 °F 79 °F (2001)
Min Temperature 41 °F 42 °F 33 °F (1998)
Degree Days  
Heating Degree Days 11    
Month to date heating degree days 90  
Since 1 July heating degree days 816  
Cooling Degree Days 0    
Month to date cooling degree days 0  
Year to date cooling degree days 53  
Growing Degree Days 3 (Base 50)    
Moisture  
Dew Point 41 °F    
Average Humidity 64    
Maximum Humidity 93    
Minimum Humidity 34    
Precipitation  
Precipitation 0.00 in 0.18 in 0.06 in (2003)
Month to date precipitation 2.28 1.53  
Year to date precipitation 3.24 6.57  
Sea Level Pressure  
Sea Level Pressure 30.21 in    
Wind  
Wind Speed 5 mph (NE)    
Max Wind Speed 13 mph    
Max Gust Speed 16 mph    
Visibility 10 miles    
Events      
T = Trace of Precipitation, MM = Missing Value Source: NWS Daily Summary

Daily Weather History Graph

Daily Weather History Graph

Search for Another Location

Airport:

Trip Planner

Search our weather history database for the weather conditions in past years. The results will help you decide how hot, cold, wet, or windy it might be!

Date:

Astronomy

Feb. 09, 2013 Rise Set
Actual Time 6:26 AM CST 5:23 PM CST
Civil Twilight 6:01 AM CST 5:48 PM CST
Nautical Twilight 5:33 AM CST 6:17 PM CST
Astronomical Twilight 5:04 AM CST 6:45 PM CST
Moon 5:38 AM CST (2/9) 5:03 PM CST (2/9)
Length of Visible Light 11h 47m
Length of Day
10h 57m
Waning Crescent, 0% of the Moon is Illuminated
Feb 9
Waning Crescent
Feb 10
New
Feb 17
First Quarter
Feb 25
Full
Mar 4
Last Quarter

Hourly Weather History & Observations

Time (CST) Temp. Windchill Dew Point Humidity Pressure Visibility Wind Dir Wind Speed Gust Speed Precip Events Conditions
12:44 AM 53.6 °F - 48.2 °F 82% 30.15 in 10.0 mi North 6.9 mph - N/A   Partly Cloudy
12:53 AM 53.1 °F - 48.9 °F 86% 30.16 in 10.0 mi North 5.8 mph - N/A   Partly Cloudy
1:53 AM 51.1 °F - 46.9 °F 86% 30.17 in 10.0 mi North 6.9 mph - N/A   Clear
2:53 AM 48.0 °F - 44.1 °F 86% 30.17 in 10.0 mi North 8.1 mph - N/A   Clear
3:53 AM 46.0 °F 43.1 °F 43.0 °F 89% 30.18 in 10.0 mi NNE 5.8 mph - N/A   Clear
4:53 AM 44.1 °F 41.5 °F 41.0 °F 89% 30.21 in 10.0 mi North 4.6 mph - N/A   Clear
5:53 AM 42.1 °F 39.2 °F 39.9 °F 92% 30.23 in 10.0 mi North 4.6 mph - N/A   Clear
6:53 AM 42.1 °F 38.4 °F 39.0 °F 89% 30.25 in 10.0 mi NNE 5.8 mph - N/A   Clear
7:53 AM 44.1 °F 38.6 °F 39.0 °F 82% 30.27 in 10.0 mi NE 10.4 mph - N/A   Clear
8:53 AM 46.9 °F - 39.9 °F 77% 30.27 in 10.0 mi ENE 8.1 mph - N/A   Clear
9:53 AM 52.0 °F - 39.0 °F 61% 30.27 in 10.0 mi ENE 10.4 mph - N/A   Clear
10:53 AM 55.0 °F - 37.9 °F 53% 30.25 in 10.0 mi East 5.8 mph - N/A   Clear
11:53 AM 59.0 °F - 37.9 °F 46% 30.24 in 10.0 mi ENE 6.9 mph - N/A   Clear
12:53 PM 61.0 °F - 36.0 °F 39% 30.20 in 10.0 mi ENE 3.5 mph - N/A   Clear
1:53 PM 63.0 °F - 36.0 °F 37% 30.19 in 10.0 mi ENE 4.6 mph - N/A   Clear
2:53 PM 64.9 °F - 35.1 °F 33% 30.17 in 10.0 mi East 8.1 mph - N/A   Clear
3:53 PM 64.9 °F - 36.0 °F 34% 30.18 in 10.0 mi ESE 4.6 mph - N/A   Clear
4:53 PM 64.0 °F - 37.0 °F 37% 30.19 in 10.0 mi East 4.6 mph - N/A   Clear
5:53 PM 57.0 °F - 44.1 °F 62% 30.19 in 10.0 mi Calm Calm - N/A   Clear
6:53 PM 54.0 °F - 45.0 °F 72% 30.19 in 10.0 mi Calm Calm - N/A   Clear
7:53 PM 46.9 °F - 43.0 °F 86% 30.20 in 10.0 mi Calm Calm - N/A   Clear
8:53 PM 48.0 °F - 43.0 °F 83% 30.21 in 10.0 mi Calm Calm - N/A   Clear
9:53 PM 45.0 °F - 42.1 °F 90% 30.20 in 10.0 mi Calm Calm - N/A   Clear
10:53 PM 46.9 °F - 44.1 °F 90% 30.20 in 8.0 mi Calm Calm - N/A   Clear
11:53 PM 50.0 °F - 42.1 °F 74% 30.20 in 10.0 mi East 3.5 mph - N/A   Clear